Location: Caltech
(34.1382°N, 118.1253°W)
Time: 13:26:48
(UTC-07:00)

TMSAT-1 - Visible Passes

Search period start: 20 August 2014 00:00
Search period end: 30 August 2014 00:00
Orbit: 808 x 814 km, 98.4° (Epoch: 20 August)

Date Brightness Start Highest point End Pass type
(mag) Time Alt. Az. Time Alt. Az. Time Alt. Az.
20 Aug 9.0 04:05:41 10° N 04:11:00 84° WNW 04:11:59 61° SSW visible
21 Aug 9.5 03:42:26 10° NNE 03:47:39 57° E 03:48:15 54° SE visible
21 Aug 10.8 05:24:03 10° NNW 05:27:02 15° WNW 05:29:25 12° W visible
22 Aug 10.4 03:19:27 10° NNE 03:24:13 33° E 03:24:31 33° ESE visible
22 Aug 10.2 04:59:39 10° NNW 05:03:56 25° WNW 05:05:41 21° W visible
23 Aug 11.2 02:56:56 10° NE 03:00:42 20° E 03:00:48 20° E visible
23 Aug 9.6 04:35:47 10° N 04:40:44 42° WNW 04:41:57 36° WSW visible
24 Aug 11.8 02:35:52 10° ENE 02:37:04 11° E 02:37:04 11° E visible
24 Aug 9.0 04:12:12 10° N 04:17:29 72° WNW 04:18:14 62° SW visible
25 Aug 9.2 03:48:52 10° NNE 03:54:08 68° ESE 03:54:30 65° SE visible
25 Aug 11.0 05:31:03 10° NW 05:33:26 13° WNW 05:35:39 10° W visible
26 Aug 10.1 03:25:47 10° NNE 03:30:44 39° E 03:30:46 39° E visible
26 Aug 10.4 05:06:22 10° NNW 05:10:21 22° WNW 05:11:56 19° W visible
27 Aug 11.0 03:03:06 10° NE 03:07:02 23° E 03:07:02 23° E visible
27 Aug 9.7 04:42:23 10° N 04:47:11 36° WNW 04:48:12 33° W visible
28 Aug 11.7 02:41:17 10° ENE 02:43:18 13° E 02:43:18 13° E visible
28 Aug 9.1 04:18:43 10° N 04:23:57 61° WNW 04:24:27 58° WSW visible
29 Aug 9.1 03:55:19 10° NNE 04:00:38 79° ESE 04:00:43 79° ESE visible
29 Aug 11.0 05:38:21 10° NW 05:39:49 11° WNW 05:41:16 10° WNW visible
